TimeEST,TemperatureF,Dew PointF,Humidity,Sea Level PressureIn,VisibilityMPH,Wind Direction,Wind SpeedMPH,Gust SpeedMPH,PrecipitationIn,Events,Conditions,WindDirDegrees,DateUTC
12:54 AM,44.1,43.0,96,29.76,3.0,SSE,5.8,-,N/A,,Clear,150,2013-12-04 05:54:00
1:54 AM,45.0,44.1,97,29.77,4.0,SSE,4.6,-,N/A,,Clear,160,2013-12-04 06:54:00
2:54 AM,42.1,42.1,100,29.78,3.0,ESE,3.5,-,N/A,,Clear,110,2013-12-04 07:54:00
3:33 AM,42.8,42.8,100,29.77,2.5,Calm,Calm,-,N/A,,Clear,0,2013-12-04 08:33:00
3:54 AM,42.1,42.1,100,29.78,2.5,ESE,3.5,-,N/A,,Partly Cloudy,120,2013-12-04 08:54:00
4:11 AM,42.8,41.0,93,29.77,2.0,ESE,4.6,-,N/A,,Scattered Clouds,120,2013-12-04 09:11:00
4:14 AM,42.8,42.8,100,29.77,2.0,ESE,4.6,-,N/A,,Mostly Cloudy,120,2013-12-04 09:14:00
4:27 AM,44.6,44.6,100,29.77,2.5,SE,4.6,-,N/A,,Mostly Cloudy,140,2013-12-04 09:27:00
4:39 AM,44.6,44.6,100,29.77,1.0,Calm,Calm,-,N/A,,Overcast,0,2013-12-04 09:39:00
4:47 AM,44.6,44.6,100,29.77,0.5,Calm,Calm,-,N/A,Fog,Fog,0,2013-12-04 09:47:00
4:54 AM,46.0,46.0,100,29.77,0.2,Calm,Calm,-,N/A,Fog,Fog,0,2013-12-04 09:54:00
5:25 AM,46.4,46.4,100,29.76,0.5,ESE,4.6,-,N/A,Fog,Fog,120,2013-12-04 10:25:00
5:42 AM,46.4,46.4,100,29.75,1.0,ESE,6.9,-,N/A,,Overcast,110,2013-12-04 10:42:00
5:54 AM,48.0,48.0,100,29.76,0.8,SE,4.6,-,N/A,,Mist,140,2013-12-04 10:54:00
6:13 AM,48.2,48.2,100,29.76,0.2,SE,5.8,-,N/A,Fog,Fog,140,2013-12-04 11:13:00
6:27 AM,48.2,48.2,100,29.76,0.5,SE,6.9,-,N/A,Fog,Fog,130,2013-12-04 11:27:00
6:54 AM,48.0,48.0,100,29.77,1.5,SE,6.9,-,N/A,,Overcast,140,2013-12-04 11:54:00
7:54 AM,48.0,48.0,100,29.78,2.0,ESE,6.9,-,N/A,,Overcast,120,2013-12-04 12:54:00
8:14 AM,48.2,48.2,100,29.77,1.5,ESE,5.8,-,N/A,,Overcast,120,2013-12-04 13:14:00
8:44 AM,48.2,48.2,100,29.76,0.8,ESE,10.4,-,N/A,,Overcast,120,2013-12-04 13:44:00
8:51 AM,48.2,48.2,100,29.76,1.0,SE,8.1,-,N/A,,Overcast,140,2013-12-04 13:51:00
8:54 AM,48.9,48.9,100,29.77,1.0,SE,11.5,-,N/A,,Overcast,130,2013-12-04 13:54:00
9:21 AM,48.2,48.2,100,29.75,2.0,SE,8.1,-,N/A,,Overcast,140,2013-12-04 14:21:00
9:29 AM,50.0,48.2,94,29.75,1.0,SE,8.1,-,N/A,,Overcast,140,2013-12-04 14:29:00
9:54 AM,50.0,50.0,100,29.76,2.5,SE,9.2,-,N/A,,Overcast,140,2013-12-04 14:54:00
10:16 AM,50.0,50.0,100,29.76,3.0,SSE,11.5,-,N/A,,Overcast,150,2013-12-04 15:16:00
10:54 AM,51.1,50.0,96,29.74,4.0,SE,13.8,21.9,N/A,,Overcast,140,2013-12-04 15:54:00
11:54 AM,54.0,52.0,93,29.70,6.0,SE,10.4,-,N/A,,Overcast,140,2013-12-04 16:54:00
12:54 PM,54.0,52.0,93,29.66,4.0,SSE,12.7,20.7,N/A,,Overcast,150,2013-12-04 17:54:00
1:54 PM,55.0,53.1,93,29.63,3.0,South,9.2,-,N/A,,Overcast,170,2013-12-04 18:54:00
2:24 PM,55.4,53.6,94,29.61,2.5,SSE,9.2,17.3,N/A,,Overcast,160,2013-12-04 19:24:00
2:40 PM,55.4,53.6,94,29.61,4.0,SSE,10.4,20.7,N/A,,Overcast,150,2013-12-04 19:40:00
2:54 PM,55.9,54.0,93,29.61,4.0,SSE,10.4,-,N/A,,Overcast,160,2013-12-04 19:54:00
3:26 PM,57.2,53.6,88,29.59,5.0,SSE,11.5,-,N/A,,Overcast,160,2013-12-04 20:26:00
3:54 PM,57.9,55.0,90,29.59,5.0,SSE,10.4,-,N/A,,Overcast,160,2013-12-04 20:54:00
4:07 PM,57.2,55.4,94,29.59,5.0,SSE,10.4,-,N/A,,Overcast,160,2013-12-04 21:07:00
4:54 PM,57.9,55.0,90,29.59,5.0,SSE,9.2,-,N/A,,Overcast,150,2013-12-04 21:54:00
5:38 PM,57.2,55.4,94,29.59,6.0,SSE,8.1,-,N/A,,Overcast,160,2013-12-04 22:38:00
5:54 PM,57.9,55.0,90,29.60,6.0,SSE,8.1,-,N/A,,Overcast,160,2013-12-04 22:54:00
6:54 PM,57.9,55.0,90,29.62,7.0,South,8.1,-,N/A,,Overcast,180,2013-12-04 23:54:00
7:54 PM,57.9,55.0,90,29.63,8.0,South,5.8,-,N/A,,Overcast,190,2013-12-05 00:54:00
8:54 PM,61.0,55.0,81,29.64,10.0,SSW,10.4,-,N/A,,Overcast,210,2013-12-05 01:54:00
9:54 PM,61.0,55.0,81,29.64,10.0,SW,12.7,19.6,N/A,,Overcast,220,2013-12-05 02:54:00
10:54 PM,60.1,55.0,83,29.65,10.0,SW,9.2,-,N/A,,Overcast,230,2013-12-05 03:54:00
11:54 PM,55.9,46.9,72,29.69,10.0,West,11.5,24.2,N/A,,Scattered Clouds,260,2013-12-05 04:54:00